Theta_e
338 340 339 339 340 339 340 339 338 329 328 336 336 336 335 334 334 333 332 332 331 331 330 330 329 330 329 328 321 320 322 324 326 327 328 330 334 332 325 323 328 331 333
338 339 339 338 338 338 338 338 335 328 332 336 334 335 334 334 333 332 332 331 331 330 330 330 330 330 329 325 321 320 321 326 325 326 330 330 332 331 330 332 330 332 332
338 339 339 337 337 337 336 335 333 330 332 334 331 332 333 333 332 331 331 331 330 329 329 330 330 330 322 321 322 323 327 328 328 330 330 331 331 332 332 331 331 331 331
338 339 338 337 337 336 335 332 330 331 331 331 330 330 330 331 331 330 330 330 329 329 330 330 330 329 324 322 324 326 328 328 327 330 331 330 332 332 331 331 330 330 328
338 338 338 336 336 334 333 331 329 330 330 329 328 329 329 330 330 330 330 329 329 330 330 330 331 330 327 325 325 327 328 327 328 329 329 329 330 331 330 329 328 326 324
338 338 337 336 334 332 331 330 329 329 329 329 329 329 329 329 329 329 328 329 329 330 330 330 332 329 326 326 325 326 328 328 330 327 327 329 329 330 329 328 325 323 321
339 337 337 335 333 330 329 329 330 330 329 329 328 328 329 329 329 328 327 329 329 330 329 329 329 327 326 325 324 326 329 329 328 327 327 328 327 328 327 326 323 320 319
339 337 336 334 331 329 328 329 329 329 329 329 328 328 328 328 327 327 328 329 328 329 328 328 328 328 327 325 324 327 328 328 326 326 326 326 326 327 327 324 320 318 317
338 338 336 334 329 327 326 328 328 328 328 328 328 328 328 327 328 328 327 328 328 329 328 329 329 326 325 326 324 327 326 327 325 325 323 322 324 326 324 321 317 316 315
338 338 336 334 331 327 327 327 327 328 328 328 327 327 326 327 328 325 324 326 328 328 329 328 327 325 324 325 326 327 326 325 324 322 321 321 323 325 323 320 317 316 314
339 337 336 334 332 329 328 327 327 327 327 326 326 327 326 326 326 323 323 325 327 328 327 327 325 324 323 325 326 325 324 323 322 321 320 318 322 322 322 320 317 315 314
337 337 335 335 333 330 329 328 327 327 326 325 325 326 325 327 323 321 323 325 328 328 327 326 325 324 323 325 326 324 324 322 321 320 319 318 321 322 321 319 317 315 313
335 335 334 335 334 332 330 329 329 328 327 326 326 326 326 327 322 323 325 326 328 326 326 326 324 324 323 324 324 324 322 321 320 319 318 317 318 322 321 319 316 314 312
333 335 333 334 335 334 331 329 328 327 327 327 326 326 326 326 325 324 323 326 328 326 326 325 323 322 323 323 322 322 321 320 319 318 316 316 317 321 321 318 315 313 311
333 332 334 334 335 335 333 330 328 326 326 326 326 324 324 325 325 324 324 328 327 328 327 325 324 322 322 323 322 320 319 319 317 317 316 316 317 320 320 317 314 312 310
333 333 331 334 334 334 334 332 330 327 323 323 323 320 324 325 325 324 328 328 330 330 327 325 321 320 321 322 320 318 317 317 316 315 315 316 318 318 317 315 313 311 309
333 332 331 331 333 334 334 333 332 329 323 323 323 322 325 325 326 327 328 330 330 327 325 322 318 320 320 320 319 316 315 315 314 313 314 316 317 315 313 311 310 308 307
332 332 331 331 333 333 333 332 332 331 325 322 323 324 325 325 327 328 326 328 326 325 324 321 317 319 319 317 315 315 313 312 312 311 311 313 313 313 311 307 305 305 304
331 332 331 330 333 332 332 332 331 329 327 323 323 324 324 327 327 328 325 326 325 324 323 317 316 317 314 312 310 309 309 310 309 308 308 307 307 307 305 303 299 297 299
331 331 330 331 332 332 332 331 330 328 325 322 322 323 324 327 328 328 327 325 325 323 321 315 314 313 311 309 306 305 305 306 307 306 304 303 302 301 298 295 294 293 292
330 331 331 330 332 331 330 328 328 324 323 321 322 324 326 327 327 325 325 324 324 322 321 315 312 311 308 306 303 301 301 302 302 302 302 301 298 296 295 294 293 292 291
330 330 331 330 331 331 329 328 326 323 322 321 322 325 327 327 325 324 325 324 323 321 319 312 312 308 304 304 302 299 297 298 299 300 299 298 297 295 294 293 292 291 290
329 329 331 331 331 331 328 326 325 323 322 322 323 325 326 325 325 324 324 324 323 321 318 314 312 310 305 302 303 302 299 299 296 298 298 297 296 295 295 293 292 291 289
329 329 330 331 330 330 328 325 324 324 323 323 324 325 325 325 326 325 324 324 323 320 318 316 312 310 307 302 302 303 304 302 299 297 297 297 296 295 295 294 293 292 290
329 329 330 330 330 329 327 326 325 324 324 324 325 325 325 325 324 325 325 323 321 319 320 315 312 309 307 303 301 303 302 303 301 298 297 294 296 296 295 294 293 292 291
328 329 329 329 330 329 327 327 326 325 324 322 322 324 323 324 324 322 322 322 321 320 318 314 312 308 305 303 302 302 303 300 298 296 295 294 294 296 296 295 294 293 292
Wind_Speed
26 33 29 28 26 25 25 23 22 22 23 21 20 21 20 19 19 19 19 19 20 18 18 18 18 17 17 17 18 19 19 18 17 17 17 16 17 15 14 15 16 17 16
36 36 31 29 28 26 25 23 21 25 27 22 20 19 19 18 17 18 18 19 18 17 18 17 17 17 16 16 17 17 18 17 13 12 16 15 16 16 16 17 18 19 19
39 36 32 29 28 26 26 25 24 28 26 23 20 18 18 17 17 17 17 17 17 17 17 17 16 15 15 16 16 18 18 15 13 11 13 16 16 17 17 19 20 21 22
40 37 33 29 28 27 27 26 25 27 25 24 20 18 17 17 17 17 17 16 16 17 16 16 15 15 15 16 17 17 15 15 13 17 16 15 18 18 18 19 21 23 22
40 37 33 29 28 28 27 27 27 26 24 23 21 20 18 18 17 16 16 15 15 15 15 15 14 14 15 15 17 14 12 12 14 15 15 17 19 18 19 22 22 21 19
39 36 33 30 28 28 28 28 27 26 23 23 22 21 19 19 17 17 16 15 15 14 15 15 14 14 14 15 14 12 11 13 16 17 18 19 20 19 19 20 19 19 19
36 36 33 30 28 28 29 29 28 25 24 23 22 21 20 19 18 16 15 15 14 13 14 14 14 13 12 13 12 15 17 17 19 21 20 19 16 16 17 18 18 18 17
38 35 34 31 29 29 29 29 29 26 24 23 23 21 20 20 18 16 15 15 13 13 15 15 14 12 11 12 13 12 14 16 18 19 19 16 13 13 16 17 16 15 17
36 37 36 31 29 29 29 29 28 27 24 23 22 22 20 19 18 17 16 15 13 14 16 14 12 10 6 12 13 13 14 16 16 17 15 14 14 14 15 15 15 16 16
37 38 37 33 31 30 28 29 28 26 24 23 22 21 20 19 18 17 16 15 14 15 15 12 9 8 8 13 15 17 15 13 12 15 15 14 13 14 15 14 15 14 15
35 37 38 35 33 31 29 28 27 26 25 23 22 22 21 18 18 17 16 16 16 15 14 10 8 8 10 16 17 15 14 12 14 13 10 9 13 12 14 14 13 13 13
31 37 38 36 35 32 30 29 28 27 26 24 22 23 22 19 17 17 15 15 16 14 12 10 10 13 13 17 13 12 15 14 12 12 13 10 11 12 14 15 15 13 11
33 34 37 37 35 34 32 31 30 29 28 26 25 23 22 18 17 17 16 16 16 13 12 12 13 10 13 11 9 16 16 14 14 17 14 11 10 11 13 15 13 12 9
30 32 36 37 36 34 33 32 31 31 29 28 27 25 24 20 20 18 16 17 16 14 16 12 12 11 13 12 13 16 15 15 16 16 13 12 12 12 14 13 11 9 8
28 32 35 38 38 38 35 35 33 31 30 29 26 25 26 22 22 19 18 19 16 17 15 15 12 13 15 17 15 15 16 14 13 16 15 14 11 12 14 13 10 7 6
26 27 33 35 39 40 38 37 35 31 28 28 26 25 24 26 20 21 20 19 18 20 18 14 14 16 17 18 18 15 15 14 14 15 15 16 17 17 14 11 7 6 5
30 30 35 31 37 39 38 36 35 35 30 28 27 27 21 23 20 24 22 22 21 20 18 13 15 18 18 18 19 16 15 14 12 14 15 17 19 18 13 9 8 7 6
26 34 36 28 31 38 37 36 35 37 32 29 29 29 26 25 23 22 23 23 22 18 16 15 19 19 18 18 18 18 15 13 13 13 15 15 16 15 14 9 8 7 7
31 33 35 30 26 34 37 34 32 31 31 31 29 28 31 27 26 26 25 24 22 20 18 20 21 20 19 18 17 16 16 15 13 14 14 14 14 14 13 12 11 10 8
29 34 36 33 29 33 34 33 28 31 32 31 30 29 30 28 28 28 27 25 25 23 20 19 21 20 19 20 18 15 13 14 15 15 15 14 14 14 13 12 11 10 10
29 29 34 33 31 32 30 31 32 30 33 34 32 31 31 33 30 27 27 28 28 26 23 23 25 24 23 23 18 7 8 10 12 16 17 17 16 15 15 15 13 13 12
28 31 31 32 32 31 29 27 29 28 31 34 32 32 33 35 31 29 29 31 30 28 27 28 29 28 20 27 9 7 2 7 15 16 17 17 16 16 17 16 16 16 15
31 35 32 35 35 34 30 29 26 26 27 29 33 33 32 32 32 32 31 32 31 31 30 29 31 32 23 30 18 7 2 4 4 14 21 20 19 20 19 19 19 18 18
30 33 33 32 33 34 32 29 29 27 26 23 32 35 33 32 33 32 32 32 33 32 31 31 31 32 30 27 27 22 9 4 4 2 11 23 22 23 22 22 22 21 20
35 33 30 31 31 30 33 30 28 26 25 27 32 31 30 30 29 29 31 33 33 33 32 31 31 31 31 27 27 11 22 13 9 3 3 6 21 26 26 26 23 23 23
30 32 32 29 30 29 32 31 31 32 28 29 32 35 32 31 31 30 32 33 34 33 32 30 30 32 31 26 26 24 14 6 10 8 3 4 8 12 23 26 24 24 24
Wind_Direction
170 165 163 160 157 154 153 151 150 145 141 140 134 127 123 122 121 120 119 117 112 112 108 104 101 97 95 96 99 98 98 97 89 81 67 60 87 75 73 77 71 72 72
167 167 165 161 159 155 154 157 155 145 140 140 139 133 132 129 125 125 123 116 116 115 108 106 103 102 100 100 99 99 99 99 92 83 75 78 75 74 80 82 83 80 77
161 165 164 162 158 157 153 157 155 147 146 143 142 143 140 136 132 129 122 120 119 113 110 108 105 103 106 104 99 101 101 90 80 83 101 83 82 84 83 86 85 80 77
161 164 165 164 163 162 160 157 154 148 148 145 146 149 146 142 137 130 127 124 121 117 113 109 105 102 103 106 103 104 99 88 88 98 100 90 89 87 88 88 86 80 78
160 165 166 165 167 167 162 157 154 153 150 150 150 151 148 144 138 136 130 126 122 119 115 110 104 103 105 104 107 104 87 83 106 105 96 94 95 94 96 91 85 84 80
160 166 166 166 171 168 162 158 153 149 155 154 155 151 149 145 143 137 135 128 125 122 118 113 108 109 109 107 106 94 82 113 111 103 99 96 96 96 95 92 85 77 73
155 167 167 169 170 167 162 159 157 154 156 159 154 154 152 149 146 143 138 134 131 128 122 116 112 109 110 109 110 98 95 118 116 104 103 101 98 99 99 96 87 78 79
160 167 170 170 171 170 164 162 162 159 158 161 161 156 156 152 152 149 145 139 137 131 121 114 111 107 110 114 113 105 120 123 114 112 112 104 100 103 106 98 87 82 81
165 168 171 171 171 171 167 165 167 165 163 163 164 160 161 157 159 156 150 144 139 133 124 119 120 116 125 128 117 110 135 124 114 112 109 100 101 110 112 100 95 90 85
164 167 171 172 172 171 169 168 167 169 164 166 165 164 161 162 167 165 155 148 142 139 133 133 135 136 126 133 124 127 134 132 125 117 112 116 113 120 118 110 105 93 90
159 168 173 174 174 173 171 169 168 170 168 169 168 169 166 168 174 166 159 153 149 144 138 134 130 131 133 138 133 134 145 140 128 120 124 115 123 130 125 118 105 100 93
160 167 176 176 177 174 172 171 171 172 172 172 176 172 174 174 174 169 163 160 154 152 148 149 139 123 133 142 142 153 149 145 145 141 133 128 133 138 137 128 118 107 95
160 164 176 177 180 177 174 175 176 175 176 175 178 181 175 180 174 173 169 167 161 158 150 148 148 148 143 143 148 163 156 156 158 153 146 143 142 150 146 135 124 119 101
166 165 177 183 181 181 179 180 180 179 179 181 184 188 181 181 180 183 181 174 170 167 151 157 160 152 154 154 153 157 159 158 161 161 158 151 150 157 152 138 130 123 111
172 166 180 183 182 182 183 183 183 183 183 186 189 186 183 191 182 181 184 179 178 167 167 170 184 174 163 162 161 156 160 164 174 169 168 166 168 157 150 138 136 127 124
176 178 172 180 184 186 184 186 186 183 184 184 189 185 185 186 193 192 183 183 187 175 171 186 179 170 170 167 159 160 163 168 173 177 179 171 154 148 141 141 144 137 147
180 181 176 175 188 188 187 190 189 185 183 186 189 185 186 192 193 193 198 176 167 170 176 184 175 177 175 176 169 160 159 172 180 178 180 176 175 171 171 157 154 152 152
184 184 182 176 182 188 189 188 186 187 189 190 193 189 189 193 197 201 193 187 175 180 201 193 181 180 181 182 175 177 170 163 176 181 188 191 193 200 210 177 161 162 163
191 190 190 190 183 185 187 187 189 187 190 195 196 197 193 193 199 203 198 196 190 196 200 188 183 192 181 176 176 177 182 180 176 184 195 205 210 215 220 224 224 214 196
186 191 198 199 189 190 187 188 193 188 192 196 197 196 195 199 199 203 204 205 194 195 194 190 188 189 190 176 169 175 187 198 206 209 211 221 227 229 228 227 227 226 229
189 182 186 190 189 177 177 174 180 186 192 197 196 195 198 202 205 201 204 203 194 192 197 197 183 178 170 177 159 159 185 204 214 223 228 227 230 232 230 233 235 236 237
188 191 186 187 192 187 182 182 182 185 190 195 199 198 205 202 204 205 209 206 196 196 198 192 189 173 177 186 170 141 196 232 226 223 230 235 235 237 238 239 241 241 242
192 189 188 190 190 188 177 175 180 182 188 193 200 204 202 204 207 209 215 205 203 203 199 201 202 197 185 194 199 170 143 221 170 217 227 234 235 237 241 243 244 244 245
199 188 192 188 188 190 187 181 181 181 186 196 193 198 197 204 211 210 217 209 210 207 207 209 211 210 206 195 205 223 228 174 183 220 228 228 233 239 243 245 246 248 249
184 186 188 189 186 186 186 190 192 192 193 196 191 193 197 200 208 211 213 213 213 213 216 213 210 212 213 212 202 197 223 222 224 169 227 230 230 238 244 246 248 251 254
187 183 188 183 186 186 186 189 190 192 189 192 192 196 201 208 213 217 216 215 215 216 218 217 217 213 212 217 216 215 199 188 214 212 223 213 223 247 244 244 246 251 256